Time,TemperatureF,DewpointF,PressureIn,WindDirection,WindDirectionDegrees,WindSpeedMPH,WindSpeedGustMPH,Humidity,HourlyPrecipIn,Conditions,Clouds,dailyrainin,SoftwareType,DateUTC
2013-09-18 00:01:00,55.1,44.7,29.78,SSE,163,1.0,2.0,68,0.00,,,0.00,LWC V2.00 B2112,2013-09-18 07:01:00,
2013-09-18 00:06:00,54.5,44.5,29.78,East,90,0.0,2.0,69,0.00,,,0.00,LWC V2.00 B2112,2013-09-18 07:06:00,
2013-09-18 00:11:00,54.5,42.2,29.79,WNW,285,7.0,8.0,63,0.00,,,0.00,LWC V2.00 B2112,2013-09-18 07:11:00,
2013-09-18 00:16:00,55.1,43.9,29.79,SSE,161,2.0,2.0,66,0.00,,,0.00,LWC V2.00 B2112,2013-09-18 07:16:00,
2013-09-18 00:21:00,55.4,44.2,29.79,West,275,0.0,1.0,66,0.00,,,0.00,LWC V2.00 B2112,2013-09-18 07:21:00,
2013-09-18 00:26:00,55.7,42.5,29.79,NW,320,5.0,8.0,61,0.00,,,0.00,LWC V2.00 B2112,2013-09-18 07:26:00,
2013-09-18 00:31:00,56.6,42.4,29.79,SW,221,0.0,2.0,59,0.00,,,0.00,LWC V2.00 B2112,2013-09-18 07:31:00,
2013-09-18 00:36:00,57.2,41.6,29.79,NNW,331,3.0,8.0,56,0.00,,,0.00,LWC V2.00 B2112,2013-09-18 07:36:00,
2013-09-18 00:41:00,57.9,41.4,29.80,NNW,344,6.0,6.0,54,0.00,,,0.00,LWC V2.00 B2112,2013-09-18 07:41:00,
2013-09-18 00:46:00,58.6,41.5,29.80,NNE,27,3.0,9.0,53,0.00,,,0.00,LWC V2.00 B2112,2013-09-18 07:46:00,
2013-09-18 00:51:00,58.8,42.2,29.80,North,9,5.0,5.0,54,0.00,,,0.00,LWC V2.00 B2112,2013-09-18 07:51:00,
2013-09-18 00:56:00,58.3,42.2,29.80,East,88,3.0,4.0,55,0.00,,,0.00,LWC V2.00 B2112,2013-09-18 07:56:00,
2013-09-18 01:01:00,57.5,42.8,29.80,South,177,1.0,2.0,58,0.00,,,0.00,LWC V2.00 B2112,2013-09-18 08:01:00,
2013-09-18 01:06:00,56.5,42.8,29.80,WNW,297,1.0,2.0,60,0.00,,,0.00,LWC V2.00 B2112,2013-09-18 08:06:00,
2013-09-18 01:11:00,56.0,42.3,29.80,East,96,0.0,2.0,60,0.00,,,0.00,LWC V2.00 B2112,2013-09-18 08:11:00,
2013-09-18 01:16:00,55.6,41.9,29.80,SE,136,1.0,2.0,60,0.00,,,0.00,LWC V2.00 B2112,2013-09-18 08:16:00,
2013-09-18 01:21:00,55.3,43.3,29.81,SE,127,0.0,0.0,64,0.00,,,0.00,LWC V2.00 B2112,2013-09-18 08:21:00,
2013-09-18 01:26:00,54.9,43.0,29.81,SE,127,0.0,1.0,64,0.00,,,0.00,LWC V2.00 B2112,2013-09-18 08:26:00,
2013-09-18 01:31:00,54.2,42.3,29.81,SSE,155,1.0,2.0,64,0.00,,,0.00,LWC V2.00 B2112,2013-09-18 08:31:00,
2013-09-18 01:36:00,53.7,43.0,29.81,NNW,331,1.0,3.0,67,0.00,,,0.00,LWC V2.00 B2112,2013-09-18 08:36:00,
2013-09-18 01:41:00,53.4,43.5,29.81,East,92,0.0,2.0,69,0.00,,,0.00,LWC V2.00 B2112,2013-09-18 08:41:00,
2013-09-18 01:46:00,53.1,43.2,29.81,East,90,1.0,2.0,69,0.00,,,0.00,LWC V2.00 B2112,2013-09-18 08:46:00,
2013-09-18 01:51:00,52.5,43.0,29.82,SW,231,0.0,4.0,70,0.00,,,0.00,LWC V2.00 B2112,2013-09-18 08:51:00,
2013-09-18 01:56:00,52.1,42.6,29.82,SW,228,0.0,1.0,70,0.00,,,0.00,LWC V2.00 B2112,2013-09-18 08:56:00,
2013-09-18 02:01:00,51.6,43.6,29.82,SSW,209,1.0,1.0,74,0.00,,,0.00,LWC V2.00 B2112,2013-09-18 09:01:00,
2013-09-18 02:05:00,51.2,43.2,29.82,SSE,167,1.0,4.0,74,0.00,,,0.00,LWC V2.00 B2112,2013-09-18 09:05:00,
2013-09-18 02:10:00,50.7,43.1,29.82,West,279,0.0,2.0,75,0.00,,,0.00,LWC V2.00 B2112,2013-09-18 09:10:00,
2013-09-18 02:15:00,50.4,43.5,29.82,West,267,0.0,2.0,77,0.00,,,0.00,LWC V2.00 B2112,2013-09-18 09:15:00,
2013-09-18 02:20:00,50.1,43.2,29.82,West,267,1.0,1.0,77,0.00,,,0.00,LWC V2.00 B2112,2013-09-18 09:20:00,
2013-09-18 02:25:00,49.8,42.9,29.82,NW,309,2.0,2.0,77,0.00,,,0.00,LWC V2.00 B2112,2013-09-18 09:25:00,
2013-09-18 02:30:00,49.6,43.0,29.82,South,182,2.0,2.0,78,0.00,,,0.00,LWC V2.00 B2112,2013-09-18 09:30:00,
2013-09-18 02:35:00,49.5,43.3,29.82,South,185,0.0,1.0,79,0.00,,,0.00,LWC V2.00 B2112,2013-09-18 09:35:00,
2013-09-18 02:40:00,49.2,43.3,29.82,South,185,0.0,1.0,80,0.00,,,0.00,LWC V2.00 B2112,2013-09-18 09:40:00,
2013-09-18 02:46:00,49.0,43.1,29.82,SSW,193,2.0,2.0,80,0.00,,,0.00,LWC V2.00 B2112,2013-09-18 09:46:00,
2013-09-18 02:51:00,48.8,43.2,29.82,South,169,2.0,2.0,81,0.00,,,0.00,LWC V2.00 B2112,2013-09-18 09:51:00,
2013-09-18 02:56:00,48.7,43.5,29.82,SSW,196,2.0,2.0,82,0.00,,,0.00,LWC V2.00 B2112,2013-09-18 09:56:00,
2013-09-18 03:01:00,48.5,43.3,29.82,WSW,249,0.0,1.0,82,0.00,,,0.00,LWC V2.00 B2112,2013-09-18 10:01:00,
2013-09-18 03:06:00,48.4,43.5,29.82,West,275,1.0,2.0,83,0.00,,,0.00,LWC V2.00 B2112,2013-09-18 10:06:00,
2013-09-18 03:11:00,48.3,43.7,29.82,SE,132,2.0,3.0,84,0.00,,,0.00,LWC V2.00 B2112,2013-09-18 10:11:00,
2013-09-18 03:16:00,48.5,43.9,29.82,West,270,2.0,4.0,84,0.00,,,0.00,LWC V2.00 B2112,2013-09-18 10:16:00,
2013-09-18 03:21:00,48.7,43.8,29.82,West,270,0.0,2.0,83,0.00,,,0.00,LWC V2.00 B2112,2013-09-18 10:21:00,
2013-09-18 03:26:00,48.6,43.7,29.82,North,5,0.0,1.0,83,0.00,,,0.00,LWC V2.00 B2112,2013-09-18 10:26:00,
2013-09-18 03:31:00,48.6,43.7,29.83,North,5,0.0,0.0,83,0.00,,,0.00,LWC V2.00 B2112,2013-09-18 10:31:00,
2013-09-18 03:36:00,48.4,43.5,29.82,ENE,77,1.0,2.0,83,0.00,,,0.00,LWC V2.00 B2112,2013-09-18 10:36:00,
2013-09-18 03:41:00,48.5,43.3,29.83,West,281,1.0,3.0,82,0.00,,,0.00,LWC V2.00 B2112,2013-09-18 10:41:00,
2013-09-18 03:46:00,48.9,43.6,29.83,SW,232,0.0,2.0,82,0.00,,,0.00,LWC V2.00 B2112,2013-09-18 10:46:00,
2013-09-18 03:51:00,48.7,43.8,29.83,NNW,344,1.0,3.0,83,0.00,,,0.00,LWC V2.00 B2112,2013-09-18 10:51:00,
2013-09-18 03:56:00,48.8,43.6,29.83,West,264,3.0,8.0,82,0.00,,,0.00,LWC V2.00 B2112,2013-09-18 10:56:00,
2013-09-18 04:01:00,49.2,43.9,29.83,West,265,1.0,2.0,82,0.00,,,0.00,LWC V2.00 B2112,2013-09-18 11:01:00,
2013-09-18 04:06:00,49.4,43.8,29.84,West,264,0.0,1.0,81,0.00,,,0.00,LWC V2.00 B2112,2013-09-18 11:06:00,
2013-09-18 04:11:00,49.3,43.7,29.84,WSW,243,2.0,2.0,81,0.00,,,0.00,LWC V2.00 B2112,2013-09-18 11:11:00,
2013-09-18 04:16:00,49.0,43.7,29.84,NE,53,0.0,3.0,82,0.00,,,0.00,LWC V2.00 B2112,2013-09-18 11:16:00,
2013-09-18 04:21:00,48.7,43.5,29.84,WSW,239,1.0,2.0,82,0.00,,,0.00,LWC V2.00 B2112,2013-09-18 11:21:00,
2013-09-18 04:26:00,48.5,43.3,29.84,WSW,240,1.0,2.0,82,0.00,,,0.00,LWC V2.00 B2112,2013-09-18 11:26:00,
2013-09-18 04:31:00,48.3,43.1,29.84,WSW,240,0.0,0.0,82,0.00,,,0.00,LWC V2.00 B2112,2013-09-18 11:31:00,
2013-09-18 04:36:00,48.1,43.2,29.85,WSW,249,1.0,1.0,83,0.00,,,0.00,LWC V2.00 B2112,2013-09-18 11:36:00,
2013-09-18 04:41:00,47.9,43.3,29.84,South,186,2.0,2.0,84,0.00,,,0.00,LWC V2.00 B2112,2013-09-18 11:41:00,
2013-09-18 04:46:00,47.6,43.3,29.85,NW,311,1.0,2.0,85,0.00,,,0.00,LWC V2.00 B2112,2013-09-18 11:46:00,
2013-09-18 04:51:00,47.5,43.5,29.85,NW,311,0.0,0.0,86,0.00,,,0.00,LWC V2.00 B2112,2013-09-18 11:51:00,
2013-09-18 04:56:00,47.4,43.7,29.85,NW,322,0.0,2.0,87,0.00,,,0.00,LWC V2.00 B2112,2013-09-18 11:56:00,
2013-09-18 05:01:00,47.4,43.4,29.85,NNE,25,1.0,2.0,86,0.00,,,0.00,LWC V2.00 B2112,2013-09-18 12:01:00,
2013-09-18 05:06:00,47.4,43.4,29.85,SW,229,0.0,3.0,86,0.00,,,0.00,LWC V2.00 B2112,2013-09-18 12:06:00,
2013-09-18 05:11:00,47.3,43.3,29.85,NE,34,1.0,2.0,86,0.00,,,0.00,LWC V2.00 B2112,2013-09-18 12:11:00,
2013-09-18 05:16:00,47.3,43.3,29.85,WNW,282,0.0,1.0,86,0.00,,,0.00,LWC V2.00 B2112,2013-09-18 12:16:00,
2013-09-18 05:21:00,47.2,43.2,29.86,WNW,302,3.0,3.0,86,0.00,,,0.00,LWC V2.00 B2112,2013-09-18 12:21:00,
2013-09-18 05:26:00,47.0,43.0,29.86,ESE,120,1.0,2.0,86,0.00,,,0.00,LWC V2.00 B2112,2013-09-18 12:26:00,
2013-09-18 05:31:00,46.9,42.9,29.86,NE,49,2.0,2.0,86,0.00,,,0.00,LWC V2.00 B2112,2013-09-18 12:31:00,
2013-09-18 05:36:00,47.1,43.4,29.86,ESE,113,1.0,2.0,87,0.00,,,0.00,LWC V2.00 B2112,2013-09-18 12:36:00,
2013-09-18 05:41:00,47.4,43.4,29.86,West,263,1.0,3.0,86,0.00,,,0.00,LWC V2.00 B2112,2013-09-18 12:41:00,
2013-09-18 05:46:00,47.6,43.3,29.87,NE,38,0.0,0.0,85,0.00,,,0.00,LWC V2.00 B2112,2013-09-18 12:46:00,
2013-09-18 05:51:00,47.9,43.3,29.86,West,261,0.0,2.0,84,0.00,,,0.00,LWC V2.00 B2112,2013-09-18 12:51:00,
2013-09-18 05:56:00,47.9,43.0,29.87,WNW,302,1.0,2.0,83,0.00,,,0.00,LWC V2.00 B2112,2013-09-18 12:56:00,
2013-09-18 06:01:00,48.2,43.0,29.87,East,101,0.0,2.0,82,0.00,,,0.00,LWC V2.00 B2112,2013-09-18 13:01:00,
2013-09-18 06:06:00,48.5,43.3,29.87,SE,132,1.0,1.0,82,0.00,,,0.00,LWC V2.00 B2112,2013-09-18 13:06:00,
2013-09-18 06:11:00,48.2,43.0,29.87,West,265,0.0,2.0,82,0.00,,,0.00,LWC V2.00 B2112,2013-09-18 13:11:00,
2013-09-18 06:16:00,47.9,43.0,29.87,West,265,0.0,1.0,83,0.00,,,0.00,LWC V2.00 B2112,2013-09-18 13:16:00,
2013-09-18 06:21:00,47.9,43.0,29.88,West,265,1.0,2.0,83,0.00,,,0.00,LWC V2.00 B2112,2013-09-18 13:21:00,
2013-09-18 06:26:00,47.8,43.2,29.88,WNW,289,0.0,0.0,84,0.00,,,0.00,LWC V2.00 B2112,2013-09-18 13:26:00,
2013-09-18 06:31:00,47.6,43.3,29.88,WNW,289,0.0,1.0,85,0.00,,,0.00,LWC V2.00 B2112,2013-09-18 13:31:00,
2013-09-18 06:36:00,47.5,42.9,29.88,NW,304,0.0,1.0,84,0.00,,,0.00,LWC V2.00 B2112,2013-09-18 13:36:00,
2013-09-18 06:41:00,47.3,42.7,29.88,NW,304,0.0,1.0,84,0.00,,,0.00,LWC V2.00 B2112,2013-09-18 13:41:00,
2013-09-18 06:46:00,47.1,42.8,29.89,NW,304,0.0,0.0,85,0.00,,,0.00,LWC V2.00 B2112,2013-09-18 13:46:00,
2013-09-18 06:51:00,46.9,42.9,29.88,WNW,303,0.0,1.0,86,0.00,,,0.00,LWC V2.00 B2112,2013-09-18 13:51:00,
2013-09-18 06:56:00,46.7,42.7,29.89,West,273,3.0,3.0,86,0.00,,,0.00,LWC V2.00 B2112,2013-09-18 13:56:00,
2013-09-18 07:01:00,46.5,42.8,29.89,West,267,1.0,2.0,87,0.00,,,0.00,LWC V2.00 B2112,2013-09-18 14:01:00,
2013-09-18 07:06:00,46.5,42.8,29.89,West,265,1.0,2.0,87,0.00,,,0.00,LWC V2.00 B2112,2013-09-18 14:06:00,
2013-09-18 07:11:00,46.4,42.7,29.90,West,269,0.0,1.0,87,0.00,,,0.00,LWC V2.00 B2112,2013-09-18 14:11:00,
2013-09-18 07:16:00,46.3,42.6,29.90,WNW,296,3.0,4.0,87,0.00,,,0.00,LWC V2.00 B2112,2013-09-18 14:16:00,
2013-09-18 07:21:00,46.4,43.3,29.90,WNW,294,0.0,0.0,89,0.00,,,0.00,LWC V2.00 B2112,2013-09-18 14:21:00,
2013-09-18 07:26:00,46.5,43.4,29.90,WNW,294,0.0,1.0,89,0.00,,,0.00,LWC V2.00 B2112,2013-09-18 14:26:00,
2013-09-18 07:31:00,46.5,43.4,29.90,WNW,294,0.0,1.0,89,0.00,,,0.00,LWC V2.00 B2112,2013-09-18 14:31:00,
2013-09-18 07:36:00,46.4,43.3,29.90,NW,312,0.0,3.0,89,0.00,,,0.00,LWC V2.00 B2112,2013-09-18 14:36:00,
2013-09-18 07:41:00,46.5,43.4,29.90,WSW,248,2.0,3.0,89,0.00,,,0.00,LWC V2.00 B2112,2013-09-18 14:41:00,
2013-09-18 07:46:00,46.6,43.5,29.89,NE,49,2.0,2.0,89,0.00,,,0.00,LWC V2.00 B2112,2013-09-18 14:46:00,
2013-09-18 07:51:00,46.9,43.5,29.89,WSW,238,1.0,3.0,88,0.00,,,0.00,LWC V2.00 B2112,2013-09-18 14:51:00,
2013-09-18 07:56:00,47.0,43.6,29.90,North,349,1.0,1.0,88,0.00,,,0.00,LWC V2.00 B2112,2013-09-18 14:56:00,
2013-09-18 08:01:00,47.2,43.8,29.90,North,355,1.0,1.0,88,0.00,,,0.00,LWC V2.00 B2112,2013-09-18 15:01:00,
2013-09-18 08:06:00,47.6,43.9,29.90,NW,324,0.0,2.0,87,0.00,,,0.00,LWC V2.00 B2112,2013-09-18 15:06:00,
2013-09-18 08:11:00,47.8,44.1,29.89,NW,324,0.0,1.0,87,0.00,,,0.00,LWC V2.00 B2112,2013-09-18 15:11:00,
2013-09-18 08:16:00,47.9,44.2,29.89,NW,324,0.0,0.0,87,0.00,,,0.00,LWC V2.00 B2112,2013-09-18 15:16:00,
2013-09-18 08:21:00,48.1,44.4,29.90,NW,325,1.0,2.0,87,0.00,,,0.00,LWC V2.00 B2112,2013-09-18 15:21:00,
2013-09-18 08:26:00,48.7,44.7,29.90,NW,324,0.0,1.0,86,0.00,,,0.00,LWC V2.00 B2112,2013-09-18 15:26:00,
2013-09-18 08:31:00,50.2,45.6,29.90,ENE,70,2.0,3.0,84,0.00,,,0.00,LWC V2.00 B2112,2013-09-18 15:31:00,
2013-09-18 08:36:00,52.7,48.0,29.90,WSW,248,1.0,3.0,84,0.00,,,0.00,LWC V2.00 B2112,2013-09-18 15:36:00,
2013-09-18 08:41:00,54.9,48.2,29.90,SSE,161,1.0,2.0,78,0.00,,,0.00,LWC V2.00 B2112,2013-09-18 15:41:00,
2013-09-18 08:46:00,56.2,48.0,29.90,East,92,1.0,3.0,74,0.00,,,0.00,LWC V2.00 B2112,2013-09-18 15:46:00,
2013-09-18 08:51:00,57.5,46.2,29.90,ESE,115,3.0,3.0,66,0.00,,,0.00,LWC V2.00 B2112,2013-09-18 15:51:00,
2013-09-18 08:56:00,58.8,50.2,29.90,SSW,207,1.0,2.0,73,0.00,,,0.00,LWC V2.00 B2112,2013-09-18 15:56:00,
2013-09-18 09:01:00,60.0,48.6,29.90,ESE,113,4.0,6.0,66,0.00,,,0.00,LWC V2.00 B2112,2013-09-18 16:01:00,
2013-09-18 09:06:00,60.8,45.9,29.90,West,262,1.0,5.0,58,0.00,,,0.00,LWC V2.00 B2112,2013-09-18 16:06:00,
2013-09-18 09:11:00,61.9,44.6,29.90,ESE,111,1.0,3.0,53,0.00,,,0.00,LWC V2.00 B2112,2013-09-18 16:11:00,
2013-09-18 09:16:00,62.7,44.8,29.90,SSW,198,5.0,6.0,52,0.00,,,0.00,LWC V2.00 B2112,2013-09-18 16:16:00,
2013-09-18 09:21:00,63.0,45.6,29.91,SW,221,3.0,3.0,53,0.00,,,0.00,LWC V2.00 B2112,2013-09-18 16:21:00,
2013-09-18 09:26:00,63.7,45.2,29.91,SE,126,4.0,4.0,51,0.00,,,0.00,LWC V2.00 B2112,2013-09-18 16:26:00,
2013-09-18 09:31:00,63.8,45.8,29.91,SE,138,4.0,7.0,52,0.00,,,0.00,LWC V2.00 B2112,2013-09-18 16:31:00,
2013-09-18 09:36:00,63.9,46.4,29.91,East,99,0.0,3.0,53,0.00,,,0.00,LWC V2.00 B2112,2013-09-18 16:36:00,
2013-09-18 09:41:00,64.2,46.2,29.91,South,169,5.0,5.0,52,0.00,,,0.00,LWC V2.00 B2112,2013-09-18 16:41:00,
2013-09-18 09:46:00,64.3,45.8,29.91,SSE,148,2.0,9.0,51,0.00,,,0.00,LWC V2.00 B2112,2013-09-18 16:46:00,
2013-09-18 09:51:00,64.6,46.6,29.91,ESE,104,1.0,3.0,52,0.00,,,0.00,LWC V2.00 B2112,2013-09-18 16:51:00,
2013-09-18 09:56:00,65.1,43.8,29.91,NNW,340,0.0,3.0,46,0.00,,,0.00,LWC V2.00 B2112,2013-09-18 16:56:00,
2013-09-18 10:01:00,65.7,44.9,29.91,WNW,285,2.0,5.0,47,0.00,,,0.00,LWC V2.00 B2112,2013-09-18 17:01:00,
2013-09-18 10:06:00,65.9,43.4,29.91,North,5,8.0,9.0,44,0.00,,,0.00,LWC V2.00 B2112,2013-09-18 17:06:00,
2013-09-18 10:11:00,65.5,43.6,29.91,NNE,30,8.0,9.0,45,0.00,,,0.00,LWC V2.00 B2112,2013-09-18 17:11:00,
2013-09-18 10:16:00,65.4,44.1,29.91,SSW,209,2.0,14.0,46,0.00,,,0.00,LWC V2.00 B2112,2013-09-18 17:16:00,
2013-09-18 10:21:00,65.4,44.1,29.91,North,5,3.0,8.0,46,0.00,,,0.00,LWC V2.00 B2112,2013-09-18 17:21:00,
2013-09-18 10:26:00,65.6,44.8,29.92,WSW,245,3.0,3.0,47,0.00,,,0.00,LWC V2.00 B2112,2013-09-18 17:26:00,
2013-09-18 10:31:00,65.6,43.7,29.91,WNW,293,2.0,5.0,45,0.00,,,0.00,LWC V2.00 B2112,2013-09-18 17:31:00,
2013-09-18 10:36:00,65.7,44.9,29.91,East,80,2.0,5.0,47,0.00,,,0.00,LWC V2.00 B2112,2013-09-18 17:36:00,
2013-09-18 10:41:00,65.7,44.3,29.91,WNW,284,2.0,5.0,46,0.00,,,0.00,LWC V2.00 B2112,2013-09-18 17:41:00,
2013-09-18 10:46:00,65.8,44.4,29.91,North,0,3.0,12.0,46,0.00,,,0.00,LWC V2.00 B2112,2013-09-18 17:46:00,
2013-09-18 10:51:00,65.9,45.1,29.91,NNE,14,2.0,4.0,47,0.00,,,0.00,LWC V2.00 B2112,2013-09-18 17:51:00,
2013-09-18 10:56:00,66.2,44.2,29.92,NW,311,4.0,10.0,45,0.00,,,0.00,LWC V2.00 B2112,2013-09-18 17:56:00,
2013-09-18 11:01:00,66.3,44.3,29.92,NE,42,4.0,8.0,45,0.00,,,0.00,LWC V2.00 B2112,2013-09-18 18:01:00,
2013-09-18 11:06:00,66.5,43.9,29.91,West,264,2.0,3.0,44,0.00,,,0.00,LWC V2.00 B2112,2013-09-18 18:06:00,
2013-09-18 11:11:00,66.7,45.3,29.91,East,86,7.0,7.0,46,0.00,,,0.00,LWC V2.00 B2112,2013-09-18 18:11:00,
2013-09-18 11:16:00,66.8,45.3,29.92,WNW,283,1.0,4.0,46,0.00,,,0.00,LWC V2.00 B2112,2013-09-18 18:16:00,
2013-09-18 11:21:00,67.2,43.9,29.92,West,265,4.0,10.0,43,0.00,,,0.00,LWC V2.00 B2112,2013-09-18 18:21:00,
2013-09-18 11:26:00,67.1,45.0,29.92,NW,313,5.0,5.0,45,0.00,,,0.00,LWC V2.00 B2112,2013-09-18 18:26:00,
2013-09-18 11:31:00,67.4,44.7,29.91,ENE,61,2.0,9.0,44,0.00,,,0.00,LWC V2.00 B2112,2013-09-18 18:31:00,
2013-09-18 11:36:00,67.6,43.7,29.91,ENE,65,3.0,3.0,42,0.00,,,0.00,LWC V2.00 B2112,2013-09-18 18:36:00,
2013-09-18 11:41:00,67.8,43.2,29.91,NNW,329,4.0,8.0,41,0.00,,,0.00,LWC V2.00 B2112,2013-09-18 18:41:00,
2013-09-18 11:46:00,67.9,44.0,29.91,NW,311,4.0,10.0,42,0.00,,,0.00,LWC V2.00 B2112,2013-09-18 18:46:00,
2013-09-18 11:51:00,68.2,44.2,29.91,South,178,1.0,4.0,42,0.00,,,0.00,LWC V2.00 B2112,2013-09-18 18:51:00,
2013-09-18 11:56:00,68.3,42.4,29.91,NW,305,3.0,7.0,39,0.00,,,0.00,LWC V2.00 B2112,2013-09-18 18:56:00,
2013-09-18 12:01:00,68.1,42.2,29.91,NW,309,2.0,11.0,39,0.00,,,0.00,LWC V2.00 B2112,2013-09-18 19:01:00,
2013-09-18 12:06:00,68.1,42.9,29.91,NNW,342,6.0,6.0,40,0.00,,,0.00,LWC V2.00 B2112,2013-09-18 19:06:00,
2013-09-18 12:11:00,68.2,44.8,29.92,NNW,330,3.0,8.0,43,0.00,,,0.00,LWC V2.00 B2112,2013-09-18 19:11:00,
2013-09-18 12:16:00,68.5,45.1,29.91,West,275,2.0,4.0,43,0.00,,,0.00,LWC V2.00 B2112,2013-09-18 19:16:00,
2013-09-18 12:21:00,68.5,43.9,29.91,WNW,302,9.0,11.0,41,0.00,,,0.00,LWC V2.00 B2112,2013-09-18 19:21:00,
2013-09-18 12:26:00,68.4,42.5,29.91,North,11,4.0,4.0,39,0.00,,,0.00,LWC V2.00 B2112,2013-09-18 19:26:00,
2013-09-18 12:31:00,68.5,42.6,29.91,NNE,30,3.0,5.0,39,0.00,,,0.00,LWC V2.00 B2112,2013-09-18 19:31:00,
2013-09-18 12:36:00,68.5,41.9,29.91,NNW,346,3.0,8.0,38,0.00,,,0.00,LWC V2.00 B2112,2013-09-18 19:36:00,
2013-09-18 12:41:00,68.8,42.8,29.91,NNW,336,9.0,9.0,39,0.00,,,0.00,LWC V2.00 B2112,2013-09-18 19:41:00,
2013-09-18 12:46:00,68.9,42.9,29.92,NW,306,5.0,13.0,39,0.00,,,0.00,LWC V2.00 B2112,2013-09-18 19:46:00,
2013-09-18 12:51:00,69.0,43.0,29.92,SW,222,3.0,4.0,39,0.00,,,0.00,LWC V2.00 B2112,2013-09-18 19:51:00,
2013-09-18 12:56:00,69.4,43.4,29.91,WNW,297,8.0,10.0,39,0.00,,,0.00,LWC V2.00 B2112,2013-09-18 19:56:00,
2013-09-18 13:01:00,69.5,44.8,29.92,East,94,4.0,5.0,41,0.00,,,0.00,LWC V2.00 B2112,2013-09-18 20:01:00,
2013-09-18 13:06:00,69.8,43.7,29.92,NNW,331,6.0,13.0,39,0.00,,,0.00,LWC V2.00 B2112,2013-09-18 20:06:00,
2013-09-18 13:11:00,69.6,45.5,29.92,NW,320,4.0,10.0,42,0.00,,,0.00,LWC V2.00 B2112,2013-09-18 20:11:00,
2013-09-18 13:16:00,69.7,42.9,29.92,WNW,294,4.0,5.0,38,0.00,,,0.00,LWC V2.00 B2112,2013-09-18 20:16:00,
2013-09-18 13:21:00,70.0,44.6,29.92,NE,52,3.0,9.0,40,0.00,,,0.00,LWC V2.00 B2112,2013-09-18 20:21:00,
2013-09-18 13:26:00,70.2,42.7,29.92,NE,50,6.0,19.0,37,0.00,,,0.00,LWC V2.00 B2112,2013-09-18 20:26:00,
2013-09-18 13:31:00,69.8,43.7,29.92,WNW,296,8.0,9.0,39,0.00,,,0.00,LWC V2.00 B2112,2013-09-18 20:31:00,
2013-09-18 13:36:00,69.6,44.8,29.92,South,186,8.0,12.0,41,0.00,,,0.00,LWC V2.00 B2112,2013-09-18 20:36:00,
2013-09-18 13:41:00,69.6,43.5,29.92,NNE,24,3.0,9.0,39,0.00,,,0.00,LWC V2.00 B2112,2013-09-18 20:41:00,
2013-09-18 13:46:00,69.7,43.6,29.92,West,259,7.0,12.0,39,0.00,,,0.00,LWC V2.00 B2112,2013-09-18 20:46:00,
2013-09-18 13:51:00,69.8,43.0,29.92,West,275,8.0,14.0,38,0.00,,,0.00,LWC V2.00 B2112,2013-09-18 20:51:00,
2013-09-18 13:57:00,69.6,42.2,29.92,West,280,6.0,7.0,37,0.00,,,0.00,LWC V2.00 B2112,2013-09-18 20:57:00,
2013-09-18 14:02:00,69.4,42.7,29.92,WSW,248,9.0,18.0,38,0.00,,,0.00,LWC V2.00 B2112,2013-09-18 21:02:00,
2013-09-18 14:07:00,69.5,42.8,29.92,West,271,6.0,9.0,38,0.00,,,0.00,LWC V2.00 B2112,2013-09-18 21:07:00,
2013-09-18 14:12:00,69.9,43.8,29.92,WNW,302,12.0,13.0,39,0.00,,,0.00,LWC V2.00 B2112,2013-09-18 21:12:00,
2013-09-18 14:16:00,69.7,42.9,29.92,WNW,297,11.0,18.0,38,0.00,,,0.00,LWC V2.00 B2112,2013-09-18 21:16:00,
2013-09-18 14:21:00,69.4,42.7,29.92,NNE,12,8.0,11.0,38,0.00,,,0.00,LWC V2.00 B2112,2013-09-18 21:21:00,
2013-09-18 14:26:00,69.6,44.2,29.93,WNW,284,6.0,11.0,40,0.00,,,0.00,LWC V2.00 B2112,2013-09-18 21:26:00,
2013-09-18 14:31:00,69.8,43.0,29.93,NNW,334,8.0,17.0,38,0.00,,,0.00,LWC V2.00 B2112,2013-09-18 21:31:00,
2013-09-18 14:37:00,69.8,45.0,29.92,NNW,331,5.0,11.0,41,0.00,,,0.00,LWC V2.00 B2112,2013-09-18 21:37:00,
2013-09-18 14:42:00,70.1,43.3,29.93,NW,319,6.0,8.0,38,0.00,,,0.00,LWC V2.00 B2112,2013-09-18 21:42:00,
2013-09-18 14:47:00,70.4,43.6,29.92,NW,312,6.0,9.0,38,0.00,,,0.00,LWC V2.00 B2112,2013-09-18 21:47:00,
2013-09-18 14:52:00,70.3,45.5,29.92,WNW,297,2.0,5.0,41,0.00,,,0.00,LWC V2.00 B2112,2013-09-18 21:52:00,
2013-09-18 14:57:00,70.5,43.7,29.92,NNW,332,8.0,11.0,38,0.00,,,0.00,LWC V2.00 B2112,2013-09-18 21:57:00,
2013-09-18 15:02:00,70.2,42.7,29.92,NW,325,6.0,12.0,37,0.00,,,0.00,LWC V2.00 B2112,2013-09-18 22:02:00,
2013-09-18 15:07:00,70.2,43.4,29.92,NNW,335,5.0,10.0,38,0.00,,,0.00,LWC V2.00 B2112,2013-09-18 22:07:00,
2013-09-18 15:12:00,70.2,42.7,29.92,West,281,10.0,13.0,37,0.00,,,0.00,LWC V2.00 B2112,2013-09-18 22:12:00,
2013-09-18 15:17:00,70.0,43.2,29.92,NW,309,5.0,17.0,38,0.00,,,0.00,LWC V2.00 B2112,2013-09-18 22:17:00,
2013-09-18 15:22:00,70.1,45.3,29.93,NNW,348,8.0,12.0,41,0.00,,,0.00,LWC V2.00 B2112,2013-09-18 22:22:00,
2013-09-18 15:27:00,70.1,41.9,29.92,NNW,340,4.0,14.0,36,0.00,,,0.00,LWC V2.00 B2112,2013-09-18 22:27:00,
2013-09-18 15:32:00,70.2,43.4,29.92,WNW,300,4.0,13.0,38,0.00,,,0.00,LWC V2.00 B2112,2013-09-18 22:32:00,
2013-09-18 15:37:00,70.1,42.6,29.92,NNE,26,2.0,2.0,37,0.00,,,0.00,LWC V2.00 B2112,2013-09-18 22:37:00,
2013-09-18 15:42:00,70.3,44.8,29.93,NW,313,6.0,8.0,40,0.00,,,0.00,LWC V2.00 B2112,2013-09-18 22:42:00,
2013-09-18 15:47:00,70.4,44.2,29.93,NNW,333,2.0,10.0,39,0.00,,,0.00,LWC V2.00 B2112,2013-09-18 22:47:00,
2013-09-18 15:52:00,70.3,44.2,29.93,NW,322,9.0,14.0,39,0.00,,,0.00,LWC V2.00 B2112,2013-09-18 22:52:00,
2013-09-18 15:57:00,69.8,44.4,29.93,NW,320,8.0,12.0,40,0.00,,,0.00,LWC V2.00 B2112,2013-09-18 22:57:00,
2013-09-18 16:02:00,69.6,42.9,29.93,NW,306,4.0,10.0,38,0.00,,,0.00,LWC V2.00 B2112,2013-09-18 23:02:00,
2013-09-18 16:07:00,69.8,43.7,29.93,WSW,242,3.0,5.0,39,0.00,,,0.00,LWC V2.00 B2112,2013-09-18 23:07:00,
2013-09-18 16:12:00,69.7,44.3,29.94,NW,323,5.0,8.0,40,0.00,,,0.00,LWC V2.00 B2112,2013-09-18 23:12:00,
2013-09-18 16:17:00,69.9,43.1,29.94,NW,316,5.0,9.0,38,0.00,,,0.00,LWC V2.00 B2112,2013-09-18 23:17:00,
2013-09-18 16:22:00,69.9,42.4,29.94,West,268,2.0,8.0,37,0.00,,,0.00,LWC V2.00 B2112,2013-09-18 23:22:00,
2013-09-18 16:27:00,70.0,42.5,29.94,West,270,4.0,7.0,37,0.00,,,0.00,LWC V2.00 B2112,2013-09-18 23:27:00,
2013-09-18 16:32:00,70.0,42.5,29.94,NNE,28,6.0,6.0,37,0.00,,,0.00,LWC V2.00 B2112,2013-09-18 23:32:00,
2013-09-18 16:37:00,69.9,43.8,29.94,SSW,195,1.0,3.0,39,0.00,,,0.00,LWC V2.00 B2112,2013-09-18 23:37:00,
2013-09-18 16:42:00,70.2,44.1,29.94,SW,227,1.0,3.0,39,0.00,,,0.00,LWC V2.00 B2112,2013-09-18 23:42:00,
2013-09-18 16:47:00,70.3,45.5,29.94,SSW,205,1.0,2.0,41,0.00,,,0.00,LWC V2.00 B2112,2013-09-18 23:47:00,
2013-09-18 16:52:00,70.4,44.2,29.94,SW,230,1.0,3.0,39,0.00,,,0.00,LWC V2.00 B2112,2013-09-18 23:52:00,
2013-09-18 16:57:00,70.3,45.5,29.94,SSW,204,0.0,3.0,41,0.00,,,0.00,LWC V2.00 B2112,2013-09-18 23:57:00,
2013-09-18 17:02:00,70.3,45.5,29.94,SE,142,2.0,3.0,41,0.00,,,0.00,LWC V2.00 B2112,2013-09-19 00:02:00,
2013-09-18 17:07:00,69.8,43.0,29.94,ENE,75,3.0,7.0,38,0.00,,,0.00,LWC V2.00 B2112,2013-09-19 00:07:00,
2013-09-18 17:12:00,69.4,43.4,29.94,WSW,243,1.0,7.0,39,0.00,,,0.00,LWC V2.00 B2112,2013-09-19 00:12:00,
2013-09-18 17:17:00,69.3,42.6,29.94,West,270,3.0,3.0,38,0.00,,,0.00,LWC V2.00 B2112,2013-09-19 00:17:00,
2013-09-18 17:22:00,69.2,41.1,29.94,West,273,2.0,3.0,36,0.00,,,0.00,LWC V2.00 B2112,2013-09-19 00:22:00,
2013-09-18 17:27:00,68.8,42.1,29.94,West,273,0.0,0.0,38,0.00,,,0.00,LWC V2.00 B2112,2013-09-19 00:27:00,
2013-09-18 17:32:00,67.4,44.1,29.94,WSW,258,0.0,2.0,43,0.00,,,0.00,LWC V2.00 B2112,2013-09-19 00:32:00,
2013-09-18 17:37:00,66.2,43.0,29.94,SSW,210,3.0,3.0,43,0.00,,,0.00,LWC V2.00 B2112,2013-09-19 00:37:00,
2013-09-18 17:42:00,65.3,44.5,29.95,NW,315,2.0,2.0,47,0.00,,,0.00,LWC V2.00 B2112,2013-09-19 00:42:00,
2013-09-18 17:47:00,65.0,41.3,29.95,NW,304,0.0,2.0,42,0.00,,,0.00,LWC V2.00 B2112,2013-09-19 00:47:00,
2013-09-18 17:52:00,64.8,45.7,29.95,WNW,303,1.0,2.0,50,0.00,,,0.00,LWC V2.00 B2112,2013-09-19 00:52:00,
2013-09-18 17:57:00,64.1,45.6,29.95,ENE,75,2.0,2.0,51,0.00,,,0.00,LWC V2.00 B2112,2013-09-19 00:57:00,
2013-09-18 18:02:00,63.2,43.7,29.95,South,186,0.0,3.0,49,0.00,,,0.00,LWC V2.00 B2112,2013-09-19 01:02:00,
2013-09-18 18:07:00,62.5,45.1,29.95,SSE,151,2.0,2.0,53,0.00,,,0.00,LWC V2.00 B2112,2013-09-19 01:07:00,
2013-09-18 18:12:00,61.8,45.5,29.95,ESE,120,3.0,4.0,55,0.00,,,0.00,LWC V2.00 B2112,2013-09-19 01:12:00,
2013-09-18 18:17:00,61.6,45.3,29.96,ESE,113,1.0,3.0,55,0.00,,,0.00,LWC V2.00 B2112,2013-09-19 01:17:00,
2013-09-18 18:22:00,61.1,45.3,29.96,ENE,73,3.0,4.0,56,0.00,,,0.00,LWC V2.00 B2112,2013-09-19 01:22:00,
2013-09-18 18:27:00,61.2,45.8,29.96,East,94,0.0,2.0,57,0.00,,,0.00,LWC V2.00 B2112,2013-09-19 01:27:00,
2013-09-18 18:32:00,60.8,47.3,29.96,ESE,111,2.0,3.0,61,0.00,,,0.00,LWC V2.00 B2112,2013-09-19 01:32:00,
2013-09-18 18:37:00,59.7,45.8,29.96,NNW,337,2.0,2.0,60,0.00,,,0.00,LWC V2.00 B2112,2013-09-19 01:37:00,
2013-09-18 18:42:00,59.0,45.1,29.96,SE,136,2.0,3.0,60,0.00,,,0.00,LWC V2.00 B2112,2013-09-19 01:42:00,
2013-09-18 18:47:00,58.6,46.0,29.96,SE,132,1.0,1.0,63,0.00,,,0.00,LWC V2.00 B2112,2013-09-19 01:47:00,
2013-09-18 18:52:00,58.4,44.6,29.97,SW,218,1.0,2.0,60,0.00,,,0.00,LWC V2.00 B2112,2013-09-19 01:52:00,
2013-09-18 18:57:00,58.5,45.9,29.97,West,261,0.0,2.0,63,0.00,,,0.00,LWC V2.00 B2112,2013-09-19 01:57:00,
2013-09-18 19:02:00,58.2,45.7,29.97,South,176,1.0,3.0,63,0.00,,,0.00,LWC V2.00 B2112,2013-09-19 02:02:00,
2013-09-18 19:07:00,58.4,41.8,29.97,NE,54,2.0,6.0,54,0.00,,,0.00,LWC V2.00 B2112,2013-09-19 02:07:00,
2013-09-18 19:13:00,59.0,45.1,29.97,East,80,2.0,3.0,60,0.00,,,0.00,LWC V2.00 B2112,2013-09-19 02:13:00,
2013-09-18 19:18:00,58.7,43.5,29.97,SW,229,2.0,3.0,57,0.00,,,0.00,LWC V2.00 B2112,2013-09-19 02:18:00,
2013-09-18 19:23:00,58.5,42.4,29.98,NNW,330,2.0,8.0,55,0.00,,,0.00,LWC V2.00 B2112,2013-09-19 02:23:00,
2013-09-18 19:28:00,59.4,40.8,29.98,WNW,290,3.0,8.0,50,0.00,,,0.00,LWC V2.00 B2112,2013-09-19 02:28:00,
2013-09-18 19:33:00,60.1,42.4,29.98,NNW,329,3.0,4.0,52,0.00,,,0.00,LWC V2.00 B2112,2013-09-19 02:33:00,
2013-09-18 19:38:00,60.2,44.0,29.98,NNW,336,2.0,2.0,55,0.00,,,0.00,LWC V2.00 B2112,2013-09-19 02:38:00,
2013-09-18 19:43:00,59.8,44.1,29.98,NW,307,1.0,1.0,56,0.00,,,0.00,LWC V2.00 B2112,2013-09-19 02:43:00,
2013-09-18 19:48:00,59.3,43.1,29.99,South,184,1.0,2.0,55,0.00,,,0.00,LWC V2.00 B2112,2013-09-19 02:48:00,
2013-09-18 19:53:00,58.3,44.0,29.99,South,176,1.0,4.0,59,0.00,,,0.00,LWC V2.00 B2112,2013-09-19 02:53:00,
2013-09-18 19:58:00,57.6,42.9,29.99,WNW,292,0.0,1.0,58,0.00,,,0.00,LWC V2.00 B2112,2013-09-19 02:58:00,
2013-09-18 20:02:00,57.1,43.8,29.99,SW,227,1.0,3.0,61,0.00,,,0.00,LWC V2.00 B2112,2013-09-19 03:02:00,
2013-09-18 20:07:00,56.6,43.3,30.00,NW,325,0.0,0.0,61,0.00,,,0.00,LWC V2.00 B2112,2013-09-19 03:07:00,
2013-09-18 20:12:00,56.0,44.4,30.00,ENE,71,1.0,2.0,65,0.00,,,0.00,LWC V2.00 B2112,2013-09-19 03:12:00,
2013-09-18 20:17:00,55.1,43.5,30.00,West,263,1.0,3.0,65,0.00,,,0.00,LWC V2.00 B2112,2013-09-19 03:17:00,
2013-09-18 20:23:00,54.6,44.6,30.00,WNW,288,2.0,2.0,69,0.00,,,0.00,LWC V2.00 B2112,2013-09-19 03:23:00,
2013-09-18 20:28:00,54.2,45.0,30.00,WNW,288,0.0,0.0,71,0.00,,,0.00,LWC V2.00 B2112,2013-09-19 03:28:00,
2013-09-18 20:33:00,53.7,44.9,30.00,WNW,288,0.0,0.0,72,0.00,,,0.00,LWC V2.00 B2112,2013-09-19 03:33:00,
2013-09-18 20:38:00,53.3,44.1,30.00,WNW,288,0.0,0.0,71,0.00,,,0.00,LWC V2.00 B2112,2013-09-19 03:38:00,
2013-09-18 20:43:00,53.0,44.9,30.00,WNW,288,0.0,1.0,74,0.00,,,0.00,LWC V2.00 B2112,2013-09-19 03:43:00,
2013-09-18 20:48:00,52.6,44.6,30.01,WNW,296,0.0,1.0,74,0.00,,,0.00,LWC V2.00 B2112,2013-09-19 03:48:00,
2013-09-18 20:53:00,52.3,44.6,30.01,WNW,296,1.0,1.0,75,0.00,,,0.00,LWC V2.00 B2112,2013-09-19 03:53:00,
2013-09-18 20:58:00,51.9,44.6,30.01,WNW,296,0.0,0.0,76,0.00,,,0.00,LWC V2.00 B2112,2013-09-19 03:58:00,
2013-09-18 21:01:00,51.7,44.4,30.01,WNW,296,0.0,0.0,76,0.00,,,0.00,LWC V2.00 B2112,2013-09-19 04:01:00,
2013-09-18 21:06:00,51.4,44.4,30.01,WNW,296,0.0,0.0,77,0.00,,,0.00,LWC V2.00 B2112,2013-09-19 04:06:00,
2013-09-18 21:08:00,51.3,44.3,30.01,WNW,296,0.0,0.0,77,0.00,,,0.00,LWC V2.00 B2112,2013-09-19 04:08:00,
2013-09-18 21:13:00,50.9,43.6,30.01,WNW,296,0.0,1.0,76,0.00,,,0.00,LWC V2.00 B2112,2013-09-19 04:13:00,
2013-09-18 21:18:00,50.6,43.7,30.01,WNW,296,0.0,0.0,77,0.00,,,0.00,LWC V2.00 B2112,2013-09-19 04:18:00,
2013-09-18 21:23:00,50.3,43.4,30.01,WNW,296,0.0,0.0,77,0.00,,,0.00,LWC V2.00 B2112,2013-09-19 04:23:00,
2013-09-18 21:28:00,50.1,44.2,30.01,WNW,296,1.0,1.0,80,0.00,,,0.00,LWC V2.00 B2112,2013-09-19 04:28:00,
2013-09-18 21:33:00,49.9,44.0,30.01,WNW,296,2.0,3.0,80,0.00,,,0.00,LWC V2.00 B2112,2013-09-19 04:33:00,
2013-09-18 21:38:00,50.0,43.4,30.01,NW,306,1.0,2.0,78,0.00,,,0.00,LWC V2.00 B2112,2013-09-19 04:38:00,
2013-09-18 21:43:00,50.1,43.2,30.02,NW,306,0.0,3.0,77,0.00,,,0.00,LWC V2.00 B2112,2013-09-19 04:43:00,
2013-09-18 21:48:00,50.2,43.3,30.02,NW,308,1.0,2.0,77,0.00,,,0.00,LWC V2.00 B2112,2013-09-19 04:48:00,
2013-09-18 21:53:00,50.8,43.5,30.01,WNW,303,3.0,3.0,76,0.00,,,0.00,LWC V2.00 B2112,2013-09-19 04:53:00,
2013-09-18 21:58:00,51.4,43.4,30.01,West,277,4.0,4.0,74,0.00,,,0.00,LWC V2.00 B2112,2013-09-19 04:58:00,
2013-09-18 22:03:00,52.1,42.6,30.02,West,277,4.0,8.0,70,0.00,,,0.00,LWC V2.00 B2112,2013-09-19 05:03:00,
2013-09-18 22:08:00,52.7,42.8,30.02,NW,315,3.0,7.0,69,0.00,,,0.00,LWC V2.00 B2112,2013-09-19 05:08:00,
2013-09-18 22:13:00,52.5,43.4,30.02,WNW,289,1.0,2.0,71,0.00,,,0.00,LWC V2.00 B2112,2013-09-19 05:13:00,
2013-09-18 22:18:00,51.9,43.2,30.02,NNW,329,2.0,2.0,72,0.00,,,0.00,LWC V2.00 B2112,2013-09-19 05:18:00,
2013-09-18 22:23:00,51.6,43.2,30.02,WNW,303,2.0,2.0,73,0.00,,,0.00,LWC V2.00 B2112,2013-09-19 05:23:00,
2013-09-18 22:28:00,51.3,43.3,30.02,WNW,300,2.0,2.0,74,0.00,,,0.00,LWC V2.00 B2112,2013-09-19 05:28:00,
2013-09-18 22:33:00,50.9,42.9,30.02,WNW,294,4.0,4.0,74,0.00,,,0.00,LWC V2.00 B2112,2013-09-19 05:33:00,
2013-09-18 22:38:00,51.0,42.7,30.03,West,280,2.0,6.0,73,0.00,,,0.00,LWC V2.00 B2112,2013-09-19 05:38:00,
2013-09-18 22:43:00,51.0,42.3,30.03,West,270,4.0,7.0,72,0.00,,,0.00,LWC V2.00 B2112,2013-09-19 05:43:00,
2013-09-18 22:48:00,50.9,42.6,30.03,WNW,282,4.0,5.0,73,0.00,,,0.00,LWC V2.00 B2112,2013-09-19 05:48:00,
2013-09-18 22:53:00,50.8,42.5,30.03,West,276,3.0,6.0,73,0.00,,,0.00,LWC V2.00 B2112,2013-09-19 05:53:00,
2013-09-18 22:58:00,50.5,42.5,30.03,WNW,294,3.0,4.0,74,0.00,,,0.00,LWC V2.00 B2112,2013-09-19 05:58:00,
2013-09-18 23:03:00,50.3,43.0,30.03,WNW,296,2.0,3.0,76,0.00,,,0.00,LWC V2.00 B2112,2013-09-19 06:03:00,
2013-09-18 23:08:00,49.8,42.5,30.03,NNW,336,2.0,3.0,76,0.00,,,0.00,LWC V2.00 B2112,2013-09-19 06:08:00,
2013-09-18 23:13:00,49.6,42.0,30.03,West,281,3.0,6.0,75,0.00,,,0.00,LWC V2.00 B2112,2013-09-19 06:13:00,
2013-09-18 23:18:00,50.1,42.1,30.03,WNW,292,4.0,5.0,74,0.00,,,0.00,LWC V2.00 B2112,2013-09-19 06:18:00,
2013-09-18 23:23:00,50.1,42.1,30.03,WNW,284,3.0,4.0,74,0.00,,,0.00,LWC V2.00 B2112,2013-09-19 06:23:00,
2013-09-18 23:28:00,50.1,42.5,30.03,West,281,2.0,3.0,75,0.00,,,0.00,LWC V2.00 B2112,2013-09-19 06:28:00,
2013-09-18 23:33:00,49.6,42.0,30.03,NW,306,2.0,3.0,75,0.00,,,0.00,LWC V2.00 B2112,2013-09-19 06:33:00,
2013-09-18 23:38:00,49.5,41.9,30.03,WNW,296,2.0,4.0,75,0.00,,,0.00,LWC V2.00 B2112,2013-09-19 06:38:00,
2013-09-18 23:43:00,49.3,42.1,30.03,WNW,296,0.0,1.0,76,0.00,,,0.00,LWC V2.00 B2112,2013-09-19 06:43:00,
2013-09-18 23:48:00,48.9,42.0,30.03,NW,305,3.0,3.0,77,0.00,,,0.00,LWC V2.00 B2112,2013-09-19 06:48:00,
2013-09-18 23:53:00,48.8,41.9,30.04,WNW,300,1.0,3.0,77,0.00,,,0.00,LWC V2.00 B2112,2013-09-19 06:53:00,
2013-09-18 23:58:00,48.6,41.4,30.04,WNW,298,2.0,3.0,76,0.00,,,0.00,LWC V2.00 B2112,2013-09-19 06:58:00,